Location: ??????
(55.2000°N, 38.3000°E)
Time: 01:39:03
(UTC+00:00)

CENTAUR R/B - Pass Details

Date: 15 November 2025
Orbit: 633 x 1547 km, 63.4° (Epoch: 12 December)

Event Time Altitude Azimuth Distance (km) Brightness Sun altitude
Exits shadow 01:52:51 37° 312° (NW) 1,900 3.6 -26.3°
Maximum altitude 01:56:35 84° 37° (NE) 1,387 3.2 -25.7°
Drops below altitude 10° 02:05:51 10° 127° (SE) 3,673 6.1 -24.4°
Sets 02:09:00 0° 129° (SE) 4,691 6.8 -24.0°
